P/2019 B2 ( Groeller )

Japanese version
Home page
Updated on September 17, 2019

---------------------------------------------------------------------

* Profile

Discovery Date January 26, 2019
Magnitude 18.0 mag
Discoverer H. Groeller (Catalina Sky Survey)

* Pictures

* Orbital Elements

Epoch 2019 June 6.0 TT = JDT 2458640.5
T 2019 June 8.05227 TT                                  Williams
q   2.4164442            (2000.0)            P               Q
n   0.13034195     Peri.  358.71734     -0.99651825     -0.08143542
a   3.8525349      Node   176.45957     +0.07884143     -0.99015952
e   0.3727651      Incl.   16.82910     +0.02711824     -0.11380858
P   7.56
From 139 observations 2019 Jan. 4-May 15, mean residual 0".6.

* Magnitudes Graph

        m1 = 8.0 + 5 log d + 20.0 log r(t - 150)

---------------------------------------------------------------------

The orbital elements are published on M.P.E.C. 2019-Q135.
The magnitudes graphs are made with Comet for Windows.

---------------------------------------------------------------------

Copyright(C) Seiichi Yoshida (comet@aerith.net). All rights reserved.